Flag for Colombia Weather past 2 weeks in Bucaramanga, Colombia

Now
57 °F

Fog.


Feels Like: 57 °F
Forecast: 66 / 85 °F
Wind: No wind

Location: Rionegro / J. M. Cordova

Current Time: Jan 26, 2015 at 4:29:04 AM

Latest Report: Jan 26, 2015 at 4:00 AM


Visibility: 4 mi

Pressure: 30.21 "Hg

Humidity: 94%

Dew point: 55 °F

Location of BucaramangaLocation

Historic Weather in Bucaramanga — Graph

°F

Bucaramanga temperature yesterday

Maximum temperature yesterday: 70 °F (at 4:00 PM)
Minimum temperature yesterday: 57 °F (at 6:00 AM)
Average temperature yesterday: 62 °F

Past Weeks' High & Low Weather Summary

 TemperatureHumidityPressure
High73 °F (Jan 11, 2:00 PM)100% (Jan 11, 4:00 AM)30.38 "Hg (Jan 11, 4:00 AM)
Low54 °F (Jan 12, 4:00 AM)44% (Jan 11, 2:00 PM)30.17 "Hg (Jan 20, 4:00 PM)
Average62 °F82%30.28 "Hg
* Reported Jan 11 3:00 AM — Jan 26 3:00 AM, Bucaramanga, Weather by CustomWeather, © 2014

Note: Actual official high and low records may vary slightly from our data, if they occured in-between our weather recording intervals... More about our weather records

Advertising

Bucaramanga weather history for previous 24 hours

 ConditionsComfort  
Time TempWeatherWind HumidityBarometerVisibility
3:00 AM
Jan 26
57 °FPartly cloudy.5 mph94%30.21 "Hg5 mi
2:00 AM59 °FPartly cloudy.2 mph94%30.32 "Hg5 mi
1:00 AM59 °FPartly cloudy.No wind94%30.25 "Hg5 mi
12:00 AM59 °FPartly cloudy.No wind94%N/AN/A
10:00 PM
Jan 25
59 °FPassing clouds.No wind94%30.26 "HgN/A
9:00 PM59 °FPassing clouds.No wind94%30.25 "HgN/A
8:00 PM61 °FPassing clouds.5 mph94%30.22 "HgN/A
7:00 PM63 °FPassing clouds.6 mph88%30.20 "HgN/A
6:00 PM68 °FPassing clouds.5 mph60%30.18 "HgN/A
5:00 PM68 °FPassing clouds.6 mph56%30.17 "HgN/A
4:00 PM70 °FPassing clouds.13 mph57%30.17 "HgN/A
3:00 PM68 °FScattered clouds.9 mph60%30.18 "HgN/A
2:00 PM64 °FBroken clouds.7 mph73%30.22 "HgN/A
12:00 PM64 °FScattered showers. Broken clouds.12 mph73%30.27 "HgN/A
11:00 AM66 °FPartly sunny.9 mph64%30.29 "HgN/A
10:00 AM64 °FPartly sunny.7 mph68%30.30 "HgN/A
9:00 AM63 °FPartly sunny.5 mph77%30.30 "HgN/A
8:00 AM59 °FPartly sunny.No wind88%30.27 "HgN/A
7:00 AM59 °FOvercast.No wind88%30.25 "HgN/A
6:00 AM57 °FPartly cloudy.No wind94%30.24 "Hg5 mi
5:30 AM59 °FPartly cloudy.3 mph88%30.24 "Hg5 mi
5:00 AM59 °FFog.No wind94%30.23 "Hg4 mi
Weather by CustomWeather, © 2014

See weather overviewHow to use our weather pages